Theta_e
282 282 282 282 282 282 281 281 280 280 280 279 279 278 278 277 277 277 277 276 275 275 275 274 274 274 273 273 273 273 272 272 272 271 272 272 272 272 272 272 272 272 272 272 272 272 272 273 273 273 272 273 272 272 272 272 272 272 271 272 272 272
282 281 281 281 281 281 280 280 279 279 279 279 278 278 277 276 276 276 275 275 275 274 274 274 273 273 273 272 272 271 271 271 271 271 271 271 272 271 271 271 271 271 271 272 272 272 272 272 272 272 271 271 271 271 271 271 271 271 270 271 272 272
281 281 281 281 281 281 280 279 278 278 278 278 277 276 276 275 275 275 275 274 274 273 273 272 272 272 272 271 271 271 270 271 271 271 271 271 271 271 271 271 271 271 271 271 271 271 270 270 270 271 271 271 270 271 270 270 270 270 270 271 271 271
280 280 280 280 280 279 278 278 278 277 277 277 276 276 275 275 274 274 274 274 273 272 272 272 272 271 271 270 270 270 270 270 270 270 270 270 270 271 270 270 270 270 270 270 269 270 270 269 270 270 270 270 269 269 270 269 270 269 269 270 270 270
280 280 280 279 279 279 278 277 277 277 276 276 275 275 275 274 274 274 273 273 272 271 271 271 270 270 270 269 269 269 269 270 270 270 269 269 270 270 270 270 269 269 269 269 269 269 269 269 269 269 269 269 269 268 269 269 269 269 269 269 269 270
279 279 279 279 279 278 277 277 277 276 276 275 275 274 274 273 273 273 272 271 271 271 270 270 269 269 269 268 269 269 269 269 269 270 269 269 269 269 269 269 268 268 268 268 268 268 268 268 269 268 269 269 268 268 268 268 269 269 269 269 269 269
278 279 279 279 279 278 277 277 276 275 275 274 274 273 273 272 272 271 271 270 270 269 269 268 269 268 268 268 268 268 268 268 268 269 268 268 268 268 267 267 268 267 267 267 267 267 267 267 268 268 268 268 269 268 268 268 268 269 269 269 269 271
279 279 279 279 279 278 277 276 275 275 274 274 273 272 272 271 271 271 270 270 268 268 268 268 268 268 268 267 268 268 268 268 268 268 268 267 266 266 266 266 266 266 266 266 267 267 267 267 268 268 268 268 268 268 268 269 268 269 269 269 270 270
278 279 279 279 278 278 277 276 275 274 273 272 272 272 271 271 270 270 269 268 268 267 267 267 267 267 267 267 267 267 268 267 267 267 266 266 266 265 265 265 265 266 266 266 267 266 267 268 268 268 268 268 268 268 268 268 269 269 269 270 270 270
279 278 279 278 278 277 276 275 274 273 273 272 271 271 270 270 269 269 268 267 267 267 267 267 267 267 267 267 267 267 267 266 266 265 265 265 265 264 264 265 265 265 266 266 267 268 268 268 268 268 268 268 268 268 268 269 269 269 269 270 270 270
278 278 278 278 277 276 275 274 273 272 272 271 270 270 269 269 268 267 267 267 266 266 267 266 266 266 266 266 266 265 265 265 264 264 264 264 264 264 264 265 265 265 266 267 267 268 268 268 267 267 267 268 269 270 270 270 270 270 270 270 270 271
279 278 278 277 276 276 274 273 272 271 270 270 270 269 269 268 267 266 266 266 266 266 266 265 265 265 265 265 264 264 263 263 263 263 262 263 263 264 264 265 265 266 266 266 266 267 266 266 267 268 272 273 270 270 271 272 272 273 273 272 271 272
278 278 277 277 276 276 274 272 271 270 270 269 268 268 268 267 266 265 265 265 265 265 265 264 264 264 263 263 262 262 261 262 261 261 261 262 262 263 264 265 265 266 266 266 265 265 265 266 266 271 273 274 275 273 272 272 272 273 273 274 273 273
278 277 277 277 276 275 273 271 270 269 269 268 268 267 267 265 265 264 265 264 264 264 264 263 263 262 262 261 261 260 260 260 260 260 261 261 262 263 264 264 265 265 265 265 265 265 265 265 269 272 273 275 276 276 273 273 273 274 275 275 274 275
278 278 278 277 276 274 273 271 269 269 268 267 267 266 265 264 264 264 263 264 263 263 263 262 261 261 260 260 260 259 259 259 260 260 260 261 262 263 263 264 264 264 264 264 264 264 265 265 269 272 273 275 276 277 277 274 275 275 275 275 275 275
279 279 278 277 276 274 271 271 270 269 268 267 266 265 264 264 264 263 263 263 263 262 262 261 260 259 259 259 259 259 259 259 259 260 261 261 262 262 262 263 263 263 263 263 263 264 264 265 268 272 274 275 277 278 278 275 275 275 275 276 276 276
278 278 277 276 274 271 270 269 268 267 266 265 264 264 264 263 263 262 262 262 262 261 260 260 259 258 258 258 258 258 258 258 259 260 261 261 262 261 261 262 262 262 262 263 263 263 263 264 270 273 275 276 277 278 278 275 275 275 275 275 276 276
278 277 276 274 271 269 269 267 266 265 264 265 264 264 263 263 262 262 262 261 260 260 259 258 258 257 257 257 257 257 258 258 259 259 260 261 261 261 262 262 262 261 261 262 263 263 263 265 271 273 275 276 277 278 275 274 274 273 274 274 276 276
278 277 274 271 270 268 267 266 266 265 264 263 263 263 263 262 261 261 261 260 259 259 258 258 257 256 256 256 256 256 257 258 258 259 260 260 260 260 261 261 261 262 262 262 263 263 264 265 269 273 275 276 277 276 273 273 273 273 273 274 275 276
276 273 271 269 268 267 266 265 265 264 263 263 263 262 262 261 261 261 260 259 259 258 258 257 256 255 255 255 255 256 257 258 259 259 260 259 259 259 260 260 261 262 263 263 264 265 265 266 270 273 274 276 277 276 273 272 272 272 273 274 275 276
272 270 269 268 266 265 265 264 264 263 263 263 262 262 261 261 261 260 259 259 259 258 257 256 256 255 255 255 256 256 256 257 258 259 260 260 259 259 260 260 261 262 264 265 265 268 268 267 269 272 274 276 276 274 273 272 272 272 272 273 274 275
269 268 267 266 265 264 264 263 263 262 262 262 262 261 261 261 261 260 259 258 257 257 256 256 255 255 254 255 255 256 257 258 258 258 258 259 259 259 260 260 261 263 264 266 266 267 267 267 268 270 274 275 276 276 273 272 271 271 272 273 274 274
268 267 266 265 264 263 263 263 263 262 262 261 261 261 261 261 260 259 258 257 256 256 255 255 255 254 254 254 255 256 257 258 258 258 258 258 258 259 260 261 263 264 265 266 267 267 267 268 268 270 274 275 275 276 275 272 272 272 273 273 273 274
268 266 265 264 263 263 263 263 262 262 261 261 261 261 261 259 259 258 256 256 256 255 254 254 254 254 253 254 255 255 256 257 257 257 257 258 258 258 260 263 263 264 265 266 267 267 267 269 271 269 272 274 275 276 276 273 272 273 273 272 273 273
266 264 263 263 263 263 263 263 262 261 261 261 261 260 259 258 257 256 256 255 254 254 253 253 253 253 252 253 254 254 255 256 256 256 257 257 257 259 261 262 263 263 265 266 266 267 268 268 269 272 270 273 275 276 276 276 275 276 274 272 272 272
265 263 263 263 263 263 263 263 262 261 261 262 260 259 258 257 256 255 254 253 253 253 253 253 252 253 252 253 254 254 254 255 255 256 256 257 258 260 261 262 263 264 264 264 265 266 267 268 268 270 272 272 274 275 276 276 276 276 273 273 272 273
263 262 262 262 262 262 262 263 262 261 261 260 259 258 257 256 254 253 253 253 252 252 252 252 252 252 253 253 254 254 254 254 254 255 256 257 258 260 261 261 263 264 264 264 265 265 266 267 268 268 270 273 274 274 275 275 275 275 276 272 272 273
263 262 261 261 261 261 261 262 262 261 261 259 259 258 256 254 253 252 252 252 252 252 252 252 254 254 254 253 254 253 254 254 254 255 256 257 259 260 261 261 264 264 264 264 265 265 266 267 267 268 268 271 272 272 273 274 274 273 274 274 273 275
262 261 260 260 260 260 260 260 262 261 259 258 257 256 254 253 252 252 252 251 252 251 252 253 254 254 253 253 253 254 254 254 255 255 257 259 259 260 261 263 264 264 264 264 264 265 265 266 267 267 268 270 269 269 269 269 269 272 272 271 271 273
262 261 260 260 260 260 260 260 259 258 258 257 256 254 253 252 252 252 251 251 252 252 252 253 254 254 253 253 253 253 253 254 255 256 258 259 260 260 262 264 264 264 264 264 264 264 264 265 266 267 268 269 269 269 269 268 268 268 269 269 270 271
262 261 260 260 259 259 259 258 258 257 257 256 254 253 252 252 253 252 251 252 252 253 253 252 251 252 253 253 253 253 253 253 254 257 259 262 263 264 264 264 264 265 265 265 265 264 264 265 266 267 273 271 273 270 268 267 267 268 269 271 274 270
262 261 260 259 259 258 258 257 256 256 256 254 253 253 252 252 251 251 251 252 252 252 252 252 251 251 252 252 252 252 253 257 262 262 262 262 266 268 269 269 265 266 266 266 266 266 266 266 267 273 274 273 273 273 273 272 272 272 271 273 272 269
262 261 260 259 258 257 257 256 256 256 255 254 253 253 252 252 252 252 251 251 251 253 252 251 252 252 252 252 252 251 252 253 254 260 264 265 266 267 268 268 269 269 270 267 265 267 271 272 272 273 273 273 272 272 272 271 270 271 272 272 267 264
261 260 259 258 257 257 256 255 255 255 254 254 253 253 252 252 253 252 251 251 252 254 253 253 252 252 251 251 252 251 252 250 251 253 261 266 265 266 266 267 268 268 268 269 268 267 266 269 271 272 272 272 272 271 271 270 269 270 271 270 269 262
261 261 259 258 257 256 256 255 254 254 254 253 253 252 251 251 253 252 251 251 252 253 253 252 252 251 251 250 251 251 250 249 249 249 250 254 263 265 265 265 266 267 267 268 269 269 270 270 270 271 271 271 271 270 270 269 267 269 269 268 263 262
261 259 258 257 256 256 255 254 254 254 253 252 252 252 251 251 252 252 252 251 252 252 252 252 251 250 250 250 251 251 249 249 249 249 249 250 250 253 258 262 263 264 265 266 267 268 270 270 270 270 270 270 270 269 268 267 262 267 268 265 260 262
260 258 257 257 256 255 255 254 253 253 252 252 252 251 250 250 250 250 252 253 253 253 253 252 252 251 251 251 251 250 248 248 249 250 250 249 249 249 250 251 253 258 263 262 263 266 269 269 269 269 269 269 269 268 267 264 257 255 256 256 258 261
259 258 257 256 256 255 254 253 253 252 251 251 250 250 250 250 250 251 252 253 253 253 252 251 250 252 250 248 248 248 249 249 249 249 249 249 250 249 249 250 251 252 257 263 263 266 267 268 267 267 267 267 267 267 264 255 254 254 254 255 256 259
Wind_Speed
14 14 15 14 14 14 15 13 14 12 11 11 12 12 11 10 6 6 5 5 4 3 4 4 4 4 4 4 6 6 7 8 8 9 10 11 11 11 12 13 13 13 13 13 15 14 15 15 15 14 14 14 16 14 14 15 16 17 18 17 16 16
14 15 15 16 17 15 14 14 11 13 12 12 10 8 8 7 7 6 5 5 4 3 3 3 3 4 4 5 6 6 7 8 9 10 11 11 11 12 13 13 13 14 15 14 14 15 15 15 15 14 14 13 13 13 14 15 16 18 18 17 15 14
11 11 12 11 11 11 12 12 14 13 11 12 11 12 9 8 6 6 5 4 4 3 4 4 3 4 4 6 6 7 7 8 9 9 10 11 11 11 13 13 14 14 14 15 15 16 16 16 16 14 13 14 14 15 16 16 16 17 16 16 18 16
9 9 9 10 12 12 14 10 11 13 13 12 10 9 7 8 6 6 5 4 3 4 3 4 3 3 5 6 6 7 7 8 8 9 10 11 12 11 12 14 13 13 15 15 16 16 16 16 16 15 13 15 17 17 15 13 17 17 18 16 17 16
10 12 14 15 16 13 11 11 13 12 12 11 9 9 7 7 6 5 4 3 3 3 3 3 3 4 6 6 6 6 7 8 9 9 10 11 11 11 11 13 14 15 15 15 15 16 16 16 15 14 15 16 18 18 18 17 17 19 18 18 17 17
9 11 13 14 15 14 14 11 11 12 10 10 8 9 8 7 6 5 4 3 3 3 3 3 4 5 6 5 5 7 7 8 9 9 10 11 11 12 12 12 13 14 15 16 16 15 16 16 15 16 16 18 17 19 20 18 18 18 18 18 18 17
13 15 15 15 15 11 11 11 12 10 10 9 9 7 7 6 6 5 4 4 3 3 3 3 4 5 6 6 5 7 8 8 9 9 10 11 11 11 12 12 12 14 14 14 15 17 16 16 17 18 18 17 18 19 19 20 18 18 18 18 18 17
12 10 13 13 14 14 11 10 11 10 10 9 8 8 7 7 5 5 4 4 3 3 4 4 4 5 5 5 6 7 7 8 8 9 10 10 12 12 12 12 12 12 15 16 16 16 16 16 18 19 19 19 18 18 18 18 19 18 18 18 17 17
14 15 14 14 13 13 10 10 11 10 9 9 8 7 7 7 6 5 5 4 4 3 3 4 4 4 4 4 5 6 7 8 9 10 10 10 11 12 13 13 14 13 14 16 16 15 16 19 18 18 19 19 20 19 18 19 18 19 18 17 18 17
13 13 15 14 14 12 9 8 9 10 10 10 8 8 7 5 6 5 4 4 4 3 3 3 4 4 4 4 5 6 7 8 8 10 10 10 11 12 13 14 15 15 14 14 15 16 16 17 18 18 19 19 19 19 19 17 19 18 19 19 18 18
15 16 15 15 14 13 13 11 10 9 8 8 8 7 7 7 6 5 5 4 4 3 3 3 3 3 4 4 5 6 7 8 9 10 10 10 11 10 12 13 15 16 16 14 15 16 15 16 16 14 15 16 19 19 19 20 19 20 18 20 18 19
14 15 15 15 16 14 12 11 11 10 10 9 8 8 7 7 6 6 5 4 4 3 2 3 3 3 3 4 5 6 7 8 9 9 10 11 11 11 12 13 14 15 15 16 16 15 15 15 13 18 28 26 20 20 18 17 18 18 18 17 17 19
13 13 16 18 18 18 15 13 11 11 9 9 9 8 7 6 6 6 5 4 3 3 2 2 2 2 3 4 5 6 7 9 8 9 10 10 10 11 12 12 14 14 13 16 16 17 15 15 14 28 29 30 32 24 20 19 18 18 19 18 17 18
16 18 19 19 18 17 14 12 11 10 10 9 9 8 7 7 6 6 5 4 3 3 2 2 2 3 4 4 6 7 7 8 8 9 9 9 10 10 10 12 13 13 15 14 16 16 16 16 23 30 31 32 32 29 21 18 16 16 14 18 16 17
19 20 19 16 17 17 14 12 12 11 11 10 9 8 8 7 7 6 6 4 4 3 2 1 1 3 4 5 6 7 7 8 8 8 9 9 9 10 10 13 13 14 14 15 16 17 17 17 24 30 32 31 31 31 27 17 17 15 16 16 18 17
13 14 17 18 15 11 11 11 12 10 9 9 9 9 8 8 7 6 5 5 4 3 2 1 1 3 4 5 6 7 7 7 8 8 8 9 9 10 11 11 13 13 15 15 16 17 17 18 23 30 31 31 31 31 28 17 17 16 16 17 16 15
15 14 14 14 15 14 13 12 12 11 10 10 9 8 8 7 6 6 5 5 4 3 2 1 1 3 5 6 6 7 7 7 7 8 8 8 9 11 10 12 12 13 12 14 14 15 16 15 27 30 32 31 31 31 28 14 15 15 16 16 17 17
18 20 18 14 14 11 13 12 11 11 10 8 8 8 7 7 6 5 5 4 3 3 2 1 1 3 5 6 6 6 7 7 7 8 8 8 10 9 9 10 10 12 13 13 13 14 16 16 28 30 31 32 30 32 18 14 15 16 16 16 16 15
15 14 15 15 13 16 14 11 11 10 10 9 7 7 7 6 5 5 5 4 4 3 2 1 2 4 5 5 6 6 7 8 8 8 7 9 9 11 10 10 10 11 12 13 13 14 15 15 22 29 31 30 31 25 15 16 15 15 16 16 16 15
12 14 17 15 15 14 10 11 11 11 10 9 8 7 7 6 5 5 5 4 4 3 2 1 2 4 5 5 5 6 7 7 6 7 7 9 11 11 10 10 10 10 11 15 16 13 16 16 22 30 29 30 29 26 18 14 15 15 16 16 16 14
17 17 17 18 18 14 14 13 12 11 9 9 8 7 6 6 5 5 5 4 4 3 2 2 3 4 5 6 6 5 6 6 6 7 7 8 9 10 10 10 10 11 12 13 14 20 20 15 19 27 28 29 30 25 16 15 14 16 16 15 16 14
18 18 19 20 17 13 14 14 13 12 11 8 8 7 6 6 6 5 5 4 4 3 1 2 3 5 5 6 6 5 5 5 6 7 8 8 7 9 9 9 9 14 13 12 12 11 13 15 15 19 29 28 29 30 20 15 15 16 16 16 14 14
24 25 22 19 17 13 14 13 13 11 8 9 8 6 6 6 6 5 5 4 4 2 2 3 4 6 6 6 6 5 5 4 6 7 7 8 8 8 10 11 12 12 12 11 10 11 13 12 18 19 28 29 30 31 27 14 15 15 15 15 15 14
16 17 15 11 13 12 11 13 14 10 10 8 7 6 7 7 6 5 5 4 3 2 2 4 5 6 5 5 5 5 5 4 4 6 7 7 8 11 12 12 10 12 11 9 12 11 13 16 22 19 24 29 31 31 32 19 16 18 17 16 15 15
14 12 12 11 10 10 11 14 16 11 7 8 8 7 7 6 6 5 5 4 2 2 4 4 4 4 3 3 3 4 5 5 6 7 7 8 9 10 12 12 12 12 10 12 11 11 11 13 14 22 20 28 31 32 31 31 24 28 19 15 16 16
14 11 10 9 8 8 8 17 14 9 10 9 8 8 7 6 5 5 5 3 2 2 3 3 3 4 2 3 3 3 4 6 6 6 5 7 8 8 10 10 11 10 13 15 16 14 13 13 11 17 26 27 32 30 31 30 31 30 19 17 15 15
16 13 11 8 9 7 7 5 14 14 11 9 9 9 8 7 6 5 4 2 2 3 3 3 2 1 1 2 2 4 5 7 6 7 6 6 7 8 9 11 10 11 13 14 15 17 18 18 15 17 23 33 31 32 30 31 32 30 28 19 15 16
16 13 14 10 8 8 7 6 10 18 11 10 9 9 8 8 7 6 5 3 2 2 1 1 1 1 0 1 2 3 2 4 4 5 7 6 7 8 8 10 9 12 12 13 13 13 15 16 17 16 17 16 25 26 30 32 30 29 29 26 19 25
15 15 15 15 10 8 7 8 6 7 9 10 9 9 8 8 8 6 4 3 2 1 1 2 2 1 0 1 3 3 3 2 4 6 5 6 7 8 9 9 11 10 12 12 12 13 15 13 14 15 14 14 18 18 21 22 21 26 24 17 16 19
19 17 15 14 12 10 9 7 7 7 9 9 9 9 9 9 7 6 6 5 3 1 2 3 4 4 2 3 4 5 6 5 4 4 5 6 7 7 8 9 9 10 10 12 13 15 14 13 16 17 17 20 19 19 19 19 18 17 16 18 18 18
17 16 14 12 11 10 9 8 7 8 10 9 9 9 10 9 8 6 6 4 4 3 1 3 3 4 5 5 4 1 2 4 6 6 7 8 8 8 9 8 10 10 10 11 12 14 12 12 14 17 25 24 29 24 22 19 18 18 17 21 29 20
26 19 13 11 11 10 10 9 8 8 8 8 8 9 11 10 8 8 6 5 5 4 3 3 3 3 5 6 9 10 6 4 7 7 7 7 15 18 18 16 11 12 11 11 11 12 13 14 17 29 32 32 32 33 33 30 30 29 24 26 30 19
19 19 16 11 12 11 10 10 9 9 8 8 8 9 10 10 8 7 6 6 5 4 3 3 3 2 4 6 5 4 9 13 7 5 7 12 16 17 20 18 19 21 21 16 11 13 23 27 29 30 30 31 31 32 32 32 30 30 31 28 20 12
15 15 15 13 12 11 10 10 9 9 9 8 8 8 8 9 9 9 8 6 5 5 4 3 3 3 5 5 3 3 5 5 11 16 15 13 14 17 17 18 21 22 21 21 20 18 13 22 28 30 30 30 31 31 31 30 30 30 32 26 23 14
13 10 12 12 12 11 11 11 10 9 9 9 8 8 8 10 10 11 10 7 5 4 5 3 3 3 5 4 2 2 2 3 4 6 13 18 22 20 14 14 18 22 22 22 22 23 23 24 26 29 29 30 30 31 30 29 27 29 31 28 16 12
15 13 13 13 14 13 12 11 10 10 9 9 8 8 9 10 9 9 8 8 8 6 5 4 3 5 5 2 1 0 1 2 3 4 5 7 12 17 20 20 21 21 22 21 23 24 25 26 27 27 28 29 30 30 29 27 21 29 33 26 12 12
18 12 12 14 13 12 12 10 10 10 10 9 9 9 10 10 11 8 6 8 6 5 4 4 3 4 4 2 1 0 1 2 3 3 3 4 5 7 8 10 12 15 20 17 17 22 25 27 26 26 26 29 29 29 27 24 17 21 19 16 13 12
18 13 12 11 12 12 11 10 9 10 10 9 10 8 11 12 11 7 6 6 5 5 5 4 4 4 5 2 0 1 1 3 3 4 4 4 4 4 7 9 9 10 12 20 18 24 24 27 26 25 25 26 28 28 26 16 16 16 16 15 13 12
Wind_Direction
202 194 192 188 185 182 180 174 172 170 167 163 160 167 170 168 171 178 185 195 208 213 230 236 249 258 269 280 279 286 291 291 289 288 287 292 293 293 294 295 295 295 295 295 293 293 290 289 288 287 285 281 284 280 280 281 281 280 280 279 275 272
198 191 185 182 181 176 177 173 164 166 161 154 153 144 146 151 169 176 187 197 201 225 237 249 259 274 287 285 285 289 289 288 290 291 293 292 296 293 293 293 294 296 299 297 295 294 294 292 291 288 284 282 278 279 283 285 285 281 279 279 275 274
193 189 182 177 169 169 169 173 170 160 154 155 154 156 162 167 174 171 184 185 200 218 241 259 268 284 283 277 278 283 285 287 288 290 291 296 291 293 294 295 297 298 297 298 295 294 293 291 290 289 288 289 284 285 284 286 282 280 279 279 279 273
181 172 164 162 166 172 173 173 162 159 161 155 153 153 161 161 169 173 177 184 196 218 245 254 271 279 272 274 283 288 289 290 292 294 298 293 292 293 295 297 298 297 296 295 292 292 291 290 289 290 290 290 292 289 291 285 284 282 280 280 278 276
179 175 174 176 178 176 168 167 167 160 156 150 157 155 161 159 162 165 170 180 199 232 244 261 275 274 273 283 291 291 294 294 295 297 297 295 296 296 296 299 299 298 296 294 292 294 293 290 290 291 293 293 294 289 289 285 283 280 279 277 275 275
166 168 177 179 181 177 178 169 157 154 155 154 150 157 154 154 157 160 166 183 211 227 246 261 266 267 274 284 286 287 292 295 295 299 294 295 299 301 301 298 297 297 297 296 294 292 292 292 292 294 295 293 290 290 284 283 282 278 276 275 276 276
180 189 185 185 183 175 171 168 162 156 153 153 153 149 150 147 153 157 170 188 212 232 240 256 262 263 273 280 284 290 296 300 301 299 299 301 300 300 301 298 299 297 296 294 294 295 293 292 295 299 296 292 292 285 285 281 279 276 275 274 273 273
193 186 188 186 184 180 168 163 158 153 149 153 145 144 146 150 150 161 171 185 208 227 235 245 257 267 276 283 289 294 299 299 298 302 300 299 299 300 298 295 295 295 294 292 293 292 291 295 299 296 295 293 288 287 282 280 278 275 274 272 270 270
198 196 189 189 182 178 172 163 155 150 147 145 146 142 144 149 152 163 168 192 208 223 231 242 256 270 278 289 298 303 305 304 303 301 299 302 299 297 297 296 295 292 294 294 294 291 299 303 298 297 292 290 287 282 281 279 277 276 272 267 266 261
195 192 190 183 182 175 168 161 154 151 151 148 147 143 142 147 152 161 174 183 204 211 226 244 260 272 288 299 305 306 305 302 298 299 297 298 298 296 294 296 295 294 292 294 300 303 303 299 301 298 296 292 288 286 279 277 275 271 270 267 263 262
196 193 186 184 173 173 167 158 151 142 136 138 141 142 148 147 148 163 170 185 197 208 222 251 265 283 298 313 315 308 304 301 298 296 296 294 293 291 291 293 292 294 295 296 301 303 301 303 297 297 293 294 292 289 286 281 272 268 265 269 262 262
195 189 183 179 180 175 167 159 154 150 145 146 144 144 145 142 154 159 175 184 188 202 230 255 273 289 323 323 311 306 301 297 295 293 292 291 289 290 291 292 296 299 302 306 306 307 304 298 297 291 293 293 292 291 290 288 285 279 272 264 262 263
191 183 184 186 182 180 171 162 151 143 141 141 144 146 147 143 153 165 172 180 184 206 233 248 266 314 321 315 307 297 293 294 292 290 287 286 288 288 290 298 303 305 305 308 307 308 304 301 295 295 294 296 295 295 291 288 283 277 275 266 262 260
189 188 190 187 182 175 167 157 152 146 148 147 149 145 140 143 156 165 171 176 187 207 218 237 285 320 312 308 296 292 290 287 285 285 287 287 291 292 294 302 305 307 310 308 308 304 299 297 298 296 298 298 298 297 293 288 284 280 273 269 259 261
193 192 189 180 178 176 170 150 144 154 150 146 145 133 144 153 161 164 167 173 187 194 194 240 311 318 305 296 290 288 285 281 283 285 289 290 294 298 303 307 306 307 307 306 302 300 298 294 297 298 299 301 302 302 300 293 286 281 279 274 266 255
192 190 186 180 172 156 141 154 144 137 134 130 134 143 150 157 160 161 168 171 182 174 191 195 3 305 293 291 287 285 285 283 283 289 289 294 300 303 304 303 304 305 305 303 301 299 295 293 294 299 302 305 305 305 305 298 295 291 289 290 285 269
183 174 168 168 158 151 146 137 132 122 126 137 141 149 150 154 153 160 167 168 163 169 181 139 325 292 288 286 283 284 282 284 288 294 302 306 307 310 307 308 308 304 298 296 294 292 289 288 297 304 306 308 310 310 310 299 300 301 299 296 291 285
178 177 175 155 145 149 146 135 134 127 132 137 139 146 150 149 155 160 164 159 166 173 143 129 268 278 280 283 285 285 289 292 297 301 305 305 305 300 300 299 297 295 297 294 292 291 290 290 301 306 309 312 312 313 313 309 306 303 297 292 291 284
172 159 144 148 151 142 140 135 129 124 129 137 143 144 150 152 157 162 159 160 171 155 135 160 246 267 276 277 284 287 291 300 303 307 312 308 306 307 307 299 296 293 292 297 298 293 292 289 301 309 313 314 314 317 316 311 304 300 299 298 296 292
135 140 146 143 143 130 132 128 129 131 134 141 144 148 150 158 162 158 159 167 165 146 147 184 246 260 272 276 275 284 292 292 296 303 311 310 309 308 301 298 294 292 295 303 303 298 298 302 306 311 315 316 318 321 317 309 307 303 303 300 295 292
145 143 141 143 139 141 130 132 134 133 134 140 146 148 152 163 162 158 164 160 144 131 144 221 244 254 266 273 275 282 286 298 305 303 302 300 300 297 296 295 296 301 305 305 299 307 312 298 303 309 316 320 320 321 316 314 309 305 301 300 297 293
129 136 147 149 140 140 143 140 142 142 139 140 142 150 161 161 156 153 146 140 129 124 170 245 241 249 253 267 283 280 281 296 301 308 310 302 298 298 298 293 296 310 311 303 303 305 304 303 300 310 320 322 321 323 321 314 307 304 303 302 299 299
146 150 149 140 139 145 146 145 142 139 139 141 146 158 153 140 139 142 145 128 119 128 206 248 240 249 260 259 272 282 292 301 309 309 304 303 300 296 301 306 309 298 294 296 304 307 310 307 317 319 323 324 324 323 323 311 310 308 307 307 303 299
141 116 109 129 137 137 145 146 143 135 139 144 147 142 131 132 139 139 131 122 110 147 226 229 250 253 251 270 277 296 304 307 307 300 304 300 302 309 309 315 298 302 296 304 314 309 314 320 324 324 322 323 324 325 325 323 315 314 311 306 302 299
145 138 135 142 143 141 148 137 127 130 135 140 142 130 131 134 135 133 118 110 127 184 225 237 244 258 259 272 283 301 314 319 319 313 305 304 305 311 316 308 305 303 311 326 323 319 318 319 319 325 327 328 328 327 327 324 321 318 316 307 303 303
120 129 137 141 141 138 149 147 132 140 137 134 131 132 130 129 130 121 109 114 156 207 234 236 247 254 261 280 303 316 334 331 320 310 303 305 303 300 302 307 308 308 329 328 330 332 332 329 321 329 332 332 331 332 331 329 327 324 319 312 303 301
143 133 133 137 135 138 136 152 135 137 136 138 139 141 139 137 126 114 108 127 196 221 231 245 237 236 248 300 328 359 347 331 326 315 312 304 303 305 302 308 305 326 330 327 328 330 331 334 333 331 330 330 332 333 333 333 331 326 324 316 306 298
107 126 131 134 142 140 151 145 151 135 142 135 141 139 137 131 121 113 122 162 216 245 230 207 180 175 146 349 1 18 328 301 304 300 301 299 304 304 300 300 315 334 330 328 326 325 322 324 331 329 323 323 336 335 336 336 334 329 324 319 310 308
140 146 141 142 155 149 150 144 142 124 130 137 139 132 129 122 119 120 131 177 213 256 313 41 61 73 158 13 22 11 337 304 299 298 284 299 312 309 305 305 331 329 332 329 325 328 322 319 331 330 321 333 338 338 337 339 335 332 329 324 322 317
149 148 149 147 153 154 147 143 132 128 129 134 134 130 124 120 125 131 150 177 181 161 57 64 22 20 358 35 31 7 335 317 306 286 297 308 308 296 305 327 329 331 329 330 330 332 325 324 335 336 339 344 342 341 340 338 336 335 333 332 330 327
152 152 144 144 144 145 142 134 129 136 138 137 138 137 125 127 133 133 149 161 155 128 107 69 59 25 8 349 28 79 240 274 295 294 299 314 315 316 326 324 332 333 333 328 332 331 319 333 338 337 342 342 344 346 345 343 342 337 336 338 340 331
144 146 142 137 141 139 139 135 139 144 139 138 141 137 127 128 128 138 142 155 143 141 112 84 67 36 31 27 3 343 333 244 273 303 314 317 333 337 341 345 341 340 336 332 340 336 336 337 335 336 342 345 347 350 351 351 348 343 342 345 345 337
150 127 131 137 139 141 140 142 146 144 142 146 143 140 136 134 132 134 143 142 147 141 125 120 100 63 55 39 20 357 337 332 326 297 318 343 344 343 343 346 348 347 347 346 339 336 341 340 341 343 346 348 351 354 355 355 352 350 351 350 349 340
163 156 147 145 145 141 142 139 146 147 145 144 143 144 145 148 139 139 150 148 147 128 123 114 116 105 76 64 37 349 345 346 329 327 326 339 354 349 347 346 347 348 350 351 351 345 341 346 346 347 349 352 355 358 358 359 354 356 357 350 1 9
155 147 141 143 142 139 142 141 147 148 146 144 146 151 148 155 139 135 133 148 144 140 128 116 110 88 88 85 55 12 349 330 324 328 321 327 333 341 351 354 352 351 351 351 352 349 352 350 348 350 352 354 358 359 358 359 357 358 0 359 4 4
141 140 144 144 145 145 145 145 151 150 145 137 143 149 150 149 147 141 143 143 155 143 135 128 119 109 93 97 85 257 292 284 276 275 291 308 321 336 342 345 349 350 349 350 351 347 352 353 352 353 355 357 360 0 359 3 355 357 2 6 350 354
136 139 150 145 141 143 143 141 145 139 134 139 145 145 137 133 130 131 138 146 145 138 131 132 124 114 101 109 105 288 295 291 277 281 284 290 307 315 316 315 324 336 344 349 349 346 352 353 353 353 356 359 1 2 360 7 7 359 354 354 350 343
136 140 141 139 140 139 131 132 134 133 134 136 147 145 139 134 131 135 136 143 144 129 124 120 122 110 109 134 162 257 306 294 290 293 294 297 299 289 298 309 318 318 324 347 347 348 351 353 351 353 355 357 1 6 7 12 3 352 350 349 341 334